View from above orbital plane
|
View from above satellite
|
Ground track
|
The orbit data is extracted from the following two-line orbital elements,
1 33798U 93036AP 22181.52461160 .00000095 00000-0 35208-4 0 9996
2 33798 74.0312 320.2221 0094585 29.9588 44.7375 14.42349650703977
Epoch (UTC): | 30 June 2022 12:35:26 |
Eccentricity: | 0.0094585 |
inclination: | 74.0312° |
perigee height: | 683 km |
apogee height: | 818 km |
right ascension of ascending node: | 320.2221° |
argument of perigee: | 29.9588° |
revolutions per day: | 14.42349650 |
mean anomaly at epoch: | 44.7375° |
orbit number at epoch: | 70397 |
The dashed part of the orbit path shows where the satellite is in the earth's shadow,
|
|